{"data":{"norad_id":50199,"epoch":"2026-05-25T00:49:23.692800Z","epoch_age_seconds":62186,"freshness":"FRESH","line1":"1 50199U 21125AV  26145.03430200  .00004466  00000+0  29841-3 0  9991","line2":"2 50199  53.2146 256.3943 0001050  73.3335 286.7772 15.08847620248250","mean_motion":15.0884762,"eccentricity":0.000105,"inclination_deg":53.2146,"raan_deg":256.3943,"arg_perigee_deg":73.3335,"mean_anomaly_deg":286.7772,"bstar":0.00029841,"rev_number":24825,"period_min":95.437072697904,"perigee_km":538.99372277529,"apogee_km":540.44647276582,"semimajor_km":6917.8570977706,"source":"CELESTRAK","updated_at":"2026-05-25T13:38:16.872451Z"}}